Showing default

CARTOSAT 2E, 42767

Orbit data source: Space-Track

CARTOSAT 2E, 42767 is a payload satellite owned by ISRO (IN) in SSO that was launched on Fri, 23 Jun 2017 UTC via a PSLV-XL launch vehicle from the Sirharikota (SRI). Payloads include a variety of satellites, spacecraft, and rockets equipped with specific instruments for various scientific and technological missions. These include communications satellites like Starlink; space stations such as the ISS; scientific satellites like the Hubble; Earth observation satellites from companies like Planet Labs, Umbra, and HawkEye 360; GPS; miniature CubeSats for education and research; and military/defense satellites.

Loading next visibility...
CARTOSAT 2E details
Identifier
42767, 2017-036C
Orbit
SSO
Last TLE update7 hours ago
Origin
Flag of INISRO (IN / IND)
ManufacturerISRO
MissionOperational Civil Imaging
Bus & MotorIRS-2, AOCS
Mass712 kg wet, 639 kg dry
Launch date (UTC)
2017-06-23 (8 years ago)
Launch vehicle
PSLV-XL
Launch site
Sirharikota (SRI)
Object type
Payload
Rocket body
Debris
Shape & HBRHex Cyl + 2 Pan, 8 m
Radar Cross Section9.780 m², Large (>1 m²)

Expand to show TLE details & history

TLE from 7 hours ago
0 CARTOSAT 2E
1 42767U 17036C   24361.46137554  .00010126  00000-0  48344-3 0  9990
2 42767  97.4138  57.6169 0004067  33.6624 326.4869 15.19238010416509
Epoch: 2024-12-26T11:04Z
Definitive object data (Epoch: 2024-12-26T11:04:22.846Z)
Latitude0.00003°
Longitude156.08127°
Altitude508.896 km
Speed7.611 km/s
True Right ascension03h 50m 28s
True Declination0° 00' 00"
Sunlit
Object was in full shadow at TLE epoch
Visualization TLE readout
Latitude77.69246°
Longitude12.73778°
Altitude520.182 km
Speed7.611 km/s
Apparent Right ascension04h 45m 32s
Apparent Declination37° 03' 03"
Sunlit
Object is in daylight
Visualization observer readout
Local Sidereal Time17:12:26
Azimuth5.499° NNE
Elevation-12.785°
Doppler factor1
Orbital elements
Apogee altitude507.909 km
Perigee altitude502.31 km
Semi-major axis6,883.246 km
Eccentricity0.0004067
Inclination97.4138°
RAAN57.6169°
Arg. of periapsis33.6624°
True anomaly326.46116°
Mean anomaly326.4869°
Eccentric anomaly326.47403°
Mean motion3.80061 °/min
BSTAR0.00048344
Orbital period94.72 mins
Loading maneuver chart data...
Loading historical data...
Loading historical data...
Loading historical data...
Loading historical data...
Loading historical data...
Loading historical data...
Loading historical data...

CARTOSAT 2E Visibility forecast

Observer location: undefined°, undefined

Span
Click to sort rows by Start time (UTC) header in descending order
Start Az.
Max El. time (UTC)
Max El. Az.
Max El.
End time (UTC)
End Az.
5 mins2024-12-27 04:36:02.053Z213.454° SW2024-12-27 04:38:02.053Z265.394° W27.236°2024-12-27 04:41:02.053Z325.022° NNW
4 mins2024-12-27 16:07:02.053Z58.976° ENE2024-12-27 16:09:02.053Z104.255° ESE20.743°2024-12-27 16:11:02.053Z142.027° SSE
4 mins2024-12-27 17:41:02.053Z321.978° NNW2024-12-27 17:42:02.053Z301.046° NW19.72°2024-12-27 17:45:02.053Z242.808° WSW
|